Total_Precipitation_Accumulation
0.04 0.03 0.05 0.10 0.20 0.34 0.46 0.41 0.42 0.58 0.64 0.56 0.56 0.58 0.62 0.74 1.08 1.84 1.31 0.82 0.53 0.39 0.41 0.46 0.51 0.50 0.49 0.46 0.49 0.45 0.41 0.46 0.50 0.48 0.53 0.60 0.55 0.56 0.56 0.63 0.77 1.03 1.17 1.18 1.25 1.37 1.50 1.53 1.38
0.05 0.05 0.07 0.11 0.26 0.44 0.52 0.39 0.47 0.59 0.61 0.63 0.62 0.71 0.71 0.65 0.60 0.67 0.83 0.67 0.43 0.37 0.44 0.45 0.57 0.60 0.55 0.51 0.51 0.51 0.48 0.48 0.55 0.59 0.60 0.66 0.61 0.60 0.65 0.72 0.82 1.05 1.22 1.39 1.39 1.44 1.51 1.51 1.36
0.06 0.07 0.08 0.11 0.28 0.46 0.52 0.50 0.54 0.61 0.65 0.74 0.79 0.88 0.84 0.83 0.68 0.79 0.84 0.61 0.44 0.45 0.49 0.52 0.58 0.65 0.70 0.69 0.67 0.67 0.62 0.60 0.62 0.68 0.73 0.81 0.77 0.71 0.73 0.80 0.88 1.04 1.17 1.44 1.68 1.67 1.67 1.59 1.45
0.06 0.07 0.09 0.15 0.32 0.35 0.41 0.55 0.58 0.63 0.75 0.75 0.68 0.88 0.95 0.94 0.81 0.85 0.86 0.66 0.53 0.58 0.62 0.56 0.74 0.85 0.90 0.88 0.82 0.82 0.77 0.73 0.76 0.79 0.79 0.85 0.86 0.85 0.90 0.95 1.02 1.17 1.27 1.40 1.66 1.89 1.95 1.78 1.83
0.04 0.07 0.11 0.22 0.31 0.34 0.36 0.54 0.64 0.69 0.74 0.77 0.84 1.05 1.19 1.28 1.10 1.00 0.94 0.80 0.78 0.87 0.86 0.71 0.77 0.80 0.88 0.89 0.92 0.89 0.86 0.83 0.88 0.88 0.85 0.87 0.85 0.87 1.02 1.19 1.23 1.32 1.40 1.44 1.54 1.72 1.90 1.87 2.10
0.05 0.06 0.18 0.28 0.35 0.39 0.40 0.49 0.62 0.75 0.85 0.81 0.97 1.23 1.63 1.74 1.60 1.37 1.04 0.92 0.89 1.04 1.00 0.78 0.79 0.79 0.92 0.98 1.01 0.97 0.96 0.96 1.01 1.01 0.95 0.94 0.92 0.97 1.12 1.30 1.42 1.45 1.41 1.40 1.53 1.63 1.85 2.12 2.28
0.04 0.07 0.16 0.27 0.35 0.42 0.44 0.52 0.71 0.85 1.01 0.98 1.05 1.36 1.77 1.84 1.62 1.39 1.18 1.07 0.99 1.09 1.14 0.98 0.99 0.97 1.02 1.10 1.12 1.21 1.14 1.14 1.16 1.13 1.16 1.10 1.07 1.18 1.31 1.37 1.46 1.50 1.45 1.35 1.37 1.55 1.61 1.96 2.14
0.04 0.09 0.18 0.30 0.34 0.36 0.42 0.56 0.77 0.87 1.00 1.06 1.23 1.36 1.90 1.94 1.71 1.53 1.46 1.48 1.56 1.78 1.83 1.61 1.49 1.44 1.35 1.29 1.21 1.31 1.29 1.31 1.40 1.32 1.29 1.30 1.29 1.32 1.43 1.42 1.50 1.48 1.39 1.36 1.35 1.50 1.56 1.67 1.71
0.03 0.08 0.17 0.26 0.33 0.37 0.47 0.73 0.77 0.83 1.03 1.07 1.11 1.14 1.56 1.69 1.71 1.89 1.96 2.16 2.35 2.56 2.63 2.24 1.81 1.67 1.89 1.74 1.40 1.56 1.48 1.43 1.48 1.45 1.43 1.49 1.74 1.90 1.92 1.68 1.83 1.78 1.64 1.52 1.49 1.48 1.48 1.48 1.54
0.04 0.10 0.17 0.25 0.32 0.36 0.49 0.78 0.85 0.87 1.04 1.11 1.10 1.11 1.31 1.63 1.86 2.10 2.48 3.05 2.98 2.85 2.86 2.55 2.06 2.17 2.41 2.11 2.03 1.98 1.76 1.70 1.62 1.73 1.73 1.85 2.38 2.55 2.20 2.26 2.21 2.20 2.06 1.91 1.84 1.77 1.62 1.49 1.44
0.07 0.12 0.16 0.22 0.38 0.42 0.54 0.78 0.93 1.09 1.23 1.22 1.30 1.43 1.61 1.89 1.97 2.13 2.59 3.13 3.27 2.94 2.67 2.35 2.28 2.35 2.61 2.61 2.52 2.43 2.41 2.41 2.39 2.43 2.43 2.60 2.71 2.56 2.41 2.69 2.55 2.51 2.42 2.33 2.34 2.13 1.81 1.72 1.75
0.09 0.12 0.16 0.22 0.36 0.47 0.61 0.86 1.03 1.26 1.45 1.42 1.40 1.49 1.84 1.99 2.01 2.34 2.93 2.87 2.87 2.85 2.75 2.72 2.79 2.66 2.89 3.30 3.32 3.12 3.05 2.98 2.87 2.79 2.66 3.01 3.16 3.02 3.00 3.07 3.01 3.17 3.16 3.13 2.78 2.52 2.23 2.08 1.86
0.10 0.13 0.15 0.22 0.42 0.51 0.57 0.86 0.87 1.07 1.29 1.30 1.29 1.41 1.72 2.01 2.28 2.73 3.06 3.09 3.07 3.14 2.99 2.97 3.14 3.15 3.26 3.72 3.97 3.70 3.57 3.39 3.24 3.07 3.08 3.19 3.22 3.23 3.36 3.31 3.48 3.46 3.39 3.23 3.00 2.58 2.52 2.32 2.13
0.12 0.14 0.19 0.27 0.43 0.51 0.52 0.64 0.73 0.99 1.14 1.22 1.43 1.50 1.71 2.00 2.51 2.91 3.08 3.24 3.39 3.43 3.19 3.11 3.25 3.26 3.35 3.59 3.82 3.88 3.81 3.86 3.76 3.44 3.34 3.36 3.41 3.51 3.54 3.53 3.50 3.34 3.18 3.23 3.16 2.92 2.84 2.64 2.47
0.13 0.18 0.27 0.34 0.42 0.44 0.47 0.65 0.81 0.95 1.08 1.13 1.45 1.73 1.92 2.34 2.63 2.87 3.03 3.39 3.58 3.70 3.62 3.46 3.49 3.66 3.62 3.65 3.72 3.68 3.72 3.99 3.99 3.92 3.85 3.59 3.49 3.60 3.66 3.70 3.58 3.41 3.33 3.39 3.29 3.19 3.11 2.94 2.79
0.21 0.25 0.32 0.38 0.42 0.42 0.50 0.84 0.89 1.04 1.10 1.15 1.19 1.58 2.04 2.36 2.31 2.35 2.67 3.27 3.92 4.15 4.04 3.63 3.36 3.69 3.79 3.86 3.88 3.92 3.95 4.15 4.12 3.97 4.07 3.84 3.83 3.74 3.73 3.59 3.40 3.34 3.31 3.52 3.57 3.44 3.43 3.28 3.15
0.29 0.31 0.38 0.44 0.44 0.43 0.55 0.94 1.08 1.17 1.22 1.31 1.34 1.60 1.97 2.08 2.04 2.19 2.62 3.28 4.11 4.66 4.43 3.85 3.54 3.68 3.88 3.91 4.06 4.29 4.47 4.45 4.30 4.12 4.18 4.05 4.07 3.96 3.86 3.91 3.85 3.69 3.74 3.74 3.46 3.55 3.63 3.66 3.59
0.27 0.28 0.38 0.45 0.45 0.47 0.59 0.87 1.04 1.25 1.33 1.56 1.64 1.73 1.86 2.01 2.01 2.14 2.61 3.32 4.10 4.78 4.68 4.21 3.96 4.19 4.20 4.10 4.19 4.35 4.50 4.51 4.59 4.60 4.54 4.40 4.35 4.39 4.51 4.51 4.44 4.25 4.13 4.08 4.15 4.14 3.87 3.69 3.69
0.23 0.27 0.34 0.43 0.43 0.51 0.61 0.84 0.96 1.15 1.30 1.51 1.62 1.68 1.64 1.73 1.93 2.24 2.68 3.38 3.83 4.00 4.10 4.28 4.28 4.34 4.37 4.36 4.38 4.58 4.79 4.81 4.77 4.89 4.94 4.82 4.75 4.88 5.18 5.21 5.08 4.77 4.50 4.32 4.32 4.33 4.12 3.82 3.67
0.25 0.30 0.36 0.44 0.41 0.49 0.68 0.89 1.04 1.21 1.31 1.41 1.50 1.54 1.51 1.55 1.81 2.23 2.69 3.14 3.42 3.77 3.99 4.25 4.27 4.41 4.66 5.05 5.57 5.87 6.00 5.87 5.68 5.57 5.52 5.39 5.29 5.39 5.46 5.53 5.21 4.88 4.73 4.48 4.25 4.23 4.07 3.79 3.74
0.26 0.29 0.38 0.48 0.53 0.57 0.76 1.16 1.25 1.34 1.48 1.61 1.63 1.70 1.75 1.62 1.79 2.12 2.34 2.71 3.00 3.38 3.73 4.04 4.39 4.79 5.28 5.94 6.75 7.09 6.86 6.42 6.18 5.87 5.80 5.57 5.34 5.30 5.42 5.15 4.92 4.75 4.58 4.39 4.22 4.24 4.18 3.82 3.69
0.24 0.20 0.28 0.35 0.52 0.66 0.65 1.25 1.58 1.70 1.82 1.95 1.79 1.73 1.77 1.77 1.77 1.91 2.15 2.44 2.64 3.01 3.49 3.98 4.54 5.14 5.80 6.43 6.90 7.15 7.04 6.76 6.43 5.96 5.56 5.18 4.86 4.65 4.55 4.43 4.23 4.17 4.06 3.94 3.76 3.82 3.91 3.82 3.55
0.16 0.16 0.21 0.27 0.39 0.59 0.59 0.98 1.62 1.88 2.00 2.04 1.88 1.82 1.76 1.73 1.62 1.73 1.91 2.17 2.48 2.92 3.40 3.90 4.43 5.16 5.66 6.21 6.63 6.90 6.92 6.81 6.42 5.71 5.03 4.59 4.24 3.98 3.69 3.48 3.40 3.41 3.41 3.25 3.09 3.14 3.20 3.18 3.15
0.15 0.18 0.26 0.33 0.45 0.72 0.59 0.88 1.67 2.10 2.15 2.01 1.95 1.93 1.74 1.68 1.71 1.73 1.78 1.96 2.42 2.84 3.36 3.73 4.09 4.84 5.55 6.06 6.42 6.73 6.73 6.53 5.89 5.15 4.55 4.16 3.85 3.58 3.30 3.12 2.99 2.95 2.89 2.75 2.64 2.65 2.67 2.70 2.73
0.17 0.33 0.65 0.82 0.91 0.83 0.57 0.92 1.68 1.85 1.82 1.80 1.67 1.61 1.65 1.63 1.60 1.62 1.83 1.99 2.51 2.91 3.21 3.47 3.74 4.20 4.73 5.21 5.53 5.75 5.79 5.53 5.09 4.67 4.18 3.81 3.56 3.28 2.94 2.60 2.46 2.40 2.44 2.45 2.45 2.45 2.41 2.43 2.46
0.19 0.33 0.74 1.01 1.05 0.94 0.90 1.55 2.05 1.78 1.70 1.73 1.69 1.51 1.49 1.59 1.55 1.55 1.79 2.03 2.22 2.49 2.75 3.05 3.27 3.53 3.81 4.07 4.34 4.31 4.32 4.29 4.09 3.72 3.30 3.02 2.72 2.54 2.40 2.18 2.05 2.02 2.08 2.12 2.21 2.18 2.06 2.08 2.21
0.21 0.27 0.33 0.57 0.65 0.94 1.34 1.77 2.15 2.02 1.95 1.73 1.63 1.56 1.54 1.54 1.52 1.60 1.79 1.93 2.01 2.17 2.39 2.60 2.72 2.91 3.00 2.97 2.97 3.03 3.02 3.06 3.05 2.90 2.60 2.29 2.04 1.88 1.85 1.82 1.81 1.68 1.72 1.84 1.92 1.88 1.84 1.90 1.96
0.20 0.25 0.36 0.69 0.98 1.25 1.51 2.14 2.63 2.59 2.34 2.03 1.76 1.58 1.44 1.48 1.54 1.62 1.75 1.92 2.02 2.03 2.21 2.31 2.30 2.35 2.43 2.47 2.36 2.26 2.34 2.40 2.40 2.35 2.17 1.96 1.78 1.62 1.54 1.54 1.52 1.43 1.44 1.56 1.67 1.66 1.75 1.84 1.79
0.25 0.30 0.43 0.66 0.79 1.31 1.83 2.51 2.48 2.54 2.40 2.26 2.17 1.76 1.55 1.61 1.64 1.73 1.71 1.74 1.79 1.80 1.84 1.90 1.92 1.98 2.00 2.01 2.02 2.01 1.95 1.90 1.89 1.93 1.88 1.75 1.65 1.54 1.47 1.38 1.39 1.40 1.35 1.38 1.46 1.45 1.50 1.62 1.65
0.27 0.32 0.47 0.83 0.95 1.08 1.62 2.50 2.10 2.41 2.52 2.38 2.22 1.90 1.77 1.77 1.75 1.82 1.78 1.68 1.70 1.76 1.79 1.77 1.78 1.78 1.80 1.78 1.82 1.89 1.76 1.66 1.64 1.66 1.64 1.51 1.48 1.45 1.40 1.34 1.32 1.30 1.29 1.29 1.28 1.24 1.28 1.41 1.43